User: anonymous   Login
Location: Young's Pond
(41.2695°N, 72.7766°W)
Time: 20:54:03
(UTC-04:00)
Language:

Spot 4 - Orbit

View from above orbital plane
View from above orbital plane
View from above satellite
View from above satellite

Ground track
Ground track

The orbit data is extracted from the following two-line orbital elements,

1 25260U 98017A   17084.97246915 -.00000045 +00000-0 +17129-6 0  9999
2 25260 098.3535 167.6402 0013476 163.7146 196.4486 14.53465578989760
Epoch (UTC): 25 March 2017 23:20:21
Eccentricity: 0.0013476
inclination: 98.3535°
perigee height: 705 km
apogee height: 724 km
right ascension of ascending node: 167.6402°
argument of perigee: 163.7146°
revolutions per day: 14.53465578
mean anomaly at epoch: 196.4486°
orbit number at epoch: 98976

The dashed part of the orbit path shows where the satellite is in the earth's shadow,  

DLR